Seattle Boeing, WA

6:21 AM PDT on October 22, 2018 (GMT -0700)
Boeing Field-King County International

Weather History for KBFI - October, 2018

Change the Weather History Date:

Sunday, October 7, 2018

  Actual Average Record
Temperature  
Mean Temperature 52 °F -  
Max Temperature 57 °F 63 °F 77 °F (2000)
Min Temperature 48 °F 47 °F 37 °F (1983)
Degree Days  
Heating Degree Days 14    
Growing Degree Days 2 (Base 50)    
Moisture  
Dew Point 46 °F    
Average Humidity 79    
Maximum Humidity 86    
Minimum Humidity 72    
Precipitation  
Precipitation 0.00 in - - ()
Sea Level Pressure  
Sea Level Pressure 30.17 in    
Wind  
Wind Speed 6 mph (SSE)    
Max Wind Speed 9 mph    
Max Gust Speed -    
Visibility 10 miles    
Events Rain    
Averages and records for this station are not official NWS values.
T = Trace of Precipitation, MM = Missing Value Source: NWS Daily Summary

Daily Weather History Graph

Daily Weather History Graph

Search for Another Location

Airport or City:

Astronomy

Oct. 07, 2018 Rise Set
Actual Time 7:16 AM PDT 6:36 PM PDT
Civil Twilight 6:45 AM PDT 7:07 PM PDT
Nautical Twilight 6:10 AM PDT 7:42 PM PDT
Astronomical Twilight 5:34 AM PDT 8:18 PM PDT
Moon 5:13 AM PDT (10/7) 6:25 PM PDT (10/7)
Length of Visible Light 12h 21m
Length of Day
11h 19m
Waning Crescent, 2% of the Moon is Illuminated
Oct 7
Waning Crescent
Oct 8
New
Oct 16
First Quarter
Oct 24
Full
Oct 31
Last Quarter

Hourly Weather History & Observations

Time (PDT) Temp. Dew Point Humidity Pressure Visibility Wind Dir Wind Speed Gust Speed Precip Events Conditions
12:53 AM 48.9 °F 44.1 °F 83% 30.22 in 10.0 mi SE 6.9 mph - N/A   Partly Cloudy
1:53 AM 48.9 °F 43.0 °F 80% 30.23 in 10.0 mi SE 6.9 mph - N/A   Scattered Clouds
2:53 AM 48.0 °F 42.1 °F 80% 30.23 in 10.0 mi SSE 9.2 mph - N/A   Clear
3:53 AM 48.0 °F 43.0 °F 83% 30.21 in 10.0 mi SSE 6.9 mph - N/A   Mostly Cloudy
4:53 AM 48.0 °F 42.1 °F 80% 30.22 in 10.0 mi SE 6.9 mph - N/A   Partly Cloudy
5:53 AM 48.9 °F 42.1 °F 77% 30.21 in 10.0 mi SE 8.1 mph - N/A   Partly Cloudy
6:53 AM 48.0 °F 42.1 °F 80% 30.21 in 10.0 mi SE 3.5 mph - N/A   Scattered Clouds
7:53 AM 48.9 °F 42.1 °F 77% 30.21 in 10.0 mi SSE 5.8 mph - N/A   Overcast
8:53 AM 50.0 °F 42.1 °F 74% 30.21 in 10.0 mi SE 9.2 mph - N/A   Overcast
9:53 AM 51.1 °F 43.0 °F 74% 30.21 in 10.0 mi SE 8.1 mph - N/A   Overcast
10:53 AM 52.0 °F 46.0 °F 80% 30.21 in 10.0 mi SE 5.8 mph - 0.00 in Rain Light Rain
11:53 AM 53.1 °F 46.9 °F 80% 30.21 in 10.0 mi SSE 5.8 mph - 0.00 in   Overcast
12:53 PM 54.0 °F 48.0 °F 80% 30.19 in 10.0 mi South 5.8 mph - 0.00 in Rain Light Rain
1:53 PM 55.9 °F 46.9 °F 72% 30.18 in 10.0 mi SSE 5.8 mph - 0.00 in   Overcast
2:53 PM 55.9 °F 46.9 °F 72% 30.16 in 10.0 mi South 6.9 mph - N/A   Overcast
3:53 PM 55.9 °F 48.0 °F 75% 30.16 in 10.0 mi SW 8.1 mph - N/A   Overcast
4:53 PM 55.9 °F 48.0 °F 75% 30.14 in 10.0 mi South 5.8 mph - N/A   Overcast
5:53 PM 55.0 °F 48.0 °F 77% 30.13 in 10.0 mi Calm Calm - N/A   Overcast
6:53 PM 55.0 °F 48.0 °F 77% 30.12 in 10.0 mi WSW 3.5 mph - N/A   Overcast
7:53 PM 54.0 °F 48.0 °F 80% 30.11 in 10.0 mi Calm Calm - 0.00 in Rain Light Rain
8:53 PM 54.0 °F 48.9 °F 83% 30.10 in 10.0 mi Calm Calm - 0.00 in   Overcast
9:53 PM 54.0 °F 48.9 °F 83% 30.11 in 10.0 mi Calm Calm - N/A   Overcast
10:53 PM 54.0 °F 50.0 °F 86% 30.10 in 10.0 mi Calm Calm - 0.00 in Rain Light Rain
11:53 PM 54.0 °F 50.0 °F 86% 30.08 in 8.0 mi ESE 3.5 mph - 0.00 in Rain Light Rain